Résultats du Marathon de Toulouse Métropole

Liste de résultats 2018

Les temps des relais 1 et 2 seront intégrés dans les prochains jours.


Place Dossard Nom Catégorie Temps réel Photos Diplôme Détails
501 14523 DREAM RUNNING CLUB MIX 03:52:40
502 14713 REV'ADRAR MIX 03:52:42
503 14190 Van Delberg MIX 03:52:45
504 14550 ARCALE 1 HOM 03:52:46
505 14403 Team Trim MIX 03:52:51
506 14028 Les graous HOM 03:52:52
507 14243 FAMILIA PORRAS HOM 03:52:55
508 14254 Gardez-moi une tranche de salami. MIX 03:52:56
509 14560 BL.Runnersss MIX 03:53:01
510 14492 L'akk4CV MIX 03:53:04
511 14052 Vive la Normandie MIX 03:53:05
512 14786 ARCONIC UP1 MIX 03:53:13
513 14842 Les copains d'abord HOM 03:53:26
514 14321 les CGPistes MIX 03:53:31
515 14141 Les charettes MIX 03:53:34
516 14209 Philandrus 2 MIX 03:53:35
517 14654 La Marie-Team MIX 03:54:00
518 14529 JUJA! MIX 03:54:05
519 14390 HEXALOC MIX 03:54:08
520 14738 Team Petit coeur de beurre 1 MIX 03:54:17
521 14782 Midi 2i HOM 03:54:17
522 14453 TEAM DAO HOM 03:54:21
523 14194 Bamako band MIX 03:54:24
524 14870 ENEDIS 13 MIX 03:54:29
525 14578 Les éminents spécialistes HOM 03:54:31
526 14678 BUREAU VERITAS INDUSTRIE HOM 03:54:36
527 14415 Aven-GERS MIX 03:54:38
528 14614 Mercure St-Georges HOM 03:54:42
529 14499 CREDIT MUTUEL ST CYPRIEN MIX 03:54:43
530 14495 CB-ARCHITECTES EQUIPE 1 MIX 03:54:46
531 14545 Carole & ses funny runners MIX 03:54:47
532 14377 Les Genoux, Le Mollet et Le Coeur MIX 03:54:52
533 14264 rotary club muret HOM 03:55:05
534 14044 Banque de France 1 MIX 03:55:06
535 14336 On nous a forcés MIX 03:55:10
536 14803 Les gazelles du JCB FEM 03:55:12
537 14005 cousins cousines MIX 03:55:17
538 14624 ze doctors MIX 03:55:18
539 14140 DUATHLON LIEBHERR TECH PUB HOM 03:55:22
540 14719 VINCI ASF Villefranche MIX 03:55:24
541 14773 Clever Age 4 MIX 03:55:24
542 14833 ESPERANCE BANLIEUES 1 MIX 03:55:30
543 14497 Carrere Albert MIX 03:55:33
544 14481 IDE 1 MIX 03:55:37
545 14241 Les petits bouligous MIX 03:55:38
546 14095 THE OCCITAN RUNNERS HOM 03:55:48
547 14855 MOJITO TEAM FEM 03:55:49
548 14191 Syngenta Tournesol MIX 03:55:50
549 14652 Legs Miserables MIX 03:55:50
550 14104 Les Farfelus HOM 03:55:59
551 14365 Les Ramathoniens HOM 03:56:01
552 14400 ADB 4 MIX 03:56:01
553 14543 LYCEE PIERRE DE FERMAT MIX 03:56:02
554 14362 LA DURQUETEAM HOM 03:56:07
555 14070 M&M'S MIX 03:56:11
556 14388 Surbatols HOM 03:56:11
557 14216 La Team Caribou HOM 03:56:14
558 14750 OCWs Blagnac HOM 03:56:15
559 14834 ESPERANCE BANLIEUES 2 MIX 03:56:15
560 14737 CS ESPACE 1 MIX 03:56:18
561 14838 FellBech3 MIX 03:56:24
562 14353 CA TASTROFS MIX 03:56:25
563 14544 Airbus BFB1 MIX 03:56:27
564 14871 ENEDIS 14 MIX 03:56:30
565 14040 les Gars lactiques de la NEBA HOM 03:56:30
566 14212 Les Gin Tonics MIX 03:56:31
567 14244 STELIA Aerospace 4 MIX 03:56:33
568 14511 Les Palmitos MIX 03:56:34
569 14935 Team Berthelot MIX 03:56:41
570 14940 JPPI 4 MIX 03:56:44
571 14658 LA TEAM DES CASSE PIEDS MIX 03:56:45
572 14164 BipBip 32 MIX 03:56:49
573 14285 FLUIDRA 4 HOM 03:56:49
574 14677 Les Rotaldo HOM 03:56:55
575 14776 TEAM 4 MIX 03:57:02
576 14106 kikoplog MIX 03:57:02
577 14876 TEAM 40 MIX 03:57:12
578 14227 MARMOTTTES FEM 03:57:14
579 14049 Les Sanibroyeurs MIX 03:57:25
580 14149 1000 Bornes MIX 03:57:29
581 14590 Les Végétans MIX 03:57:37
582 14843 Les LDP FEM 03:57:39
583 14334 Les 4 Saisons MIX 03:57:51
584 14909 S.G.L HOM 03:57:59
585 14558 Cherchez l'intrus MIX 03:58:01
586 15005 Les orthélias MIX 03:58:08
587 14571 Fun team MIX 03:58:17
588 14392 Les runners en folie MIX 03:58:20
589 14451 Les turtles FEM 03:58:21
590 14766 Square Habitat Toulouse 2 MIX 03:58:28
591 14152 Running Submarine MIX 03:58:33
592 14570 Airbus BFB2 MIX 03:58:37
593 14458 Pham'ily MIX 03:58:38
594 14092 DISP RH FEM 03:58:48
595 14114 LES CAZELLES MIX 03:58:52
596 14797 SO RUNNERS MIX 03:58:53
597 14286 Naxos 4 MIX 03:58:57
598 14524 La Buleria MIX 03:58:58
599 14538 archi bon 1 MIX 03:59:04
600 14695 Valérie et les Garçons MIX 03:59:10
Organisé par

Nous contacter

Newsletter

Météo